sat.trackr.live / text

‹ back to catalog

INTELSAT 19 (IS-19)

NORAD 38356 · 2012-030A

PAYLOAD ACTIVE UNKNOWN

§ Identity

Operator
Country
ITSO
Launch date
2012-06-01
Launch site
SEAL
Launch vehicle
Mass (kg)
RCS (m²)
15.82

Purposes: comms

External: N2YO · Heavens-Above · Gunter

§ Orbital elements

Epoch: 2026-09-19T21:10:57.090144Z

Period
1,436.09 min
Inclination
0.0156°
Eccentricity
0.0003130
Mean motion
1.00272257 rev/d
Perigee alt
35,773.3 km
Apogee alt
35,799.7 km
Semi-major
42,164.6 km
B*
0.0000e+0
RAAN
97.4676°
Arg perigee
85.6702°
Mean anomaly
299.4027°
Rev number
5,140

§ Raw data

INTELSAT 19 (IS-19)1 38356U 12030A   26262.88260521 -.00000060  00000+0  00000+0 0  99962 38356   0.0156  97.4676 0003130  85.6702 299.4027  1.00272257 51402

JSON: /api/v1/satellites/38356 · /tle

For live sub-satellite position, see the globe view (requires WebGL).

§ Visibility from observer

Set your observer location to see the next 7 days of passes ≥ 10°. The values pass through the URL so the page stays shareable.

No JS? Fill the form by hand. The geolocation button needs JavaScript.